owner,sensor,date,latitude,longitude,relative_humidity,qcFlag 
COMPS,ioos:station:USF.COMPS:TAR:1,2014-06-01T00:00:00Z,28.1560,-82.7580,91.5,1111122 
COMPS,ioos:station:USF.COMPS:TAR:1,2014-06-01T00:06:00Z,28.1560,-82.7580,90.57,1111122 
COMPS,ioos:station:USF.COMPS:TAR:1,2014-06-01T00:12:00Z,28.1560,-82.7580,90.49,1111122 
COMPS,ioos:station:USF.COMPS:TAR:1,2014-06-01T00:18:00Z,28.1560,-82.7580,90.21,1111122 
COMPS,ioos:station:USF.COMPS:TAR:1,2014-06-01T00:24:00Z,28.1560,-82.7580,90.04,1111122 
COMPS,ioos:station:USF.COMPS:TAR:1,2014-06-01T00:30:00Z,28.1560,-82.7580,90.5,1111122 
COMPS,ioos:station:USF.COMPS:TAR:1,2014-06-01T00:36:00Z,28.1560,-82.7580,90.31,1111122 
COMPS,ioos:station:USF.COMPS:TAR:1,2014-06-01T00:42:00Z,28.1560,-82.7580,90.09,1111122 
COMPS,ioos:station:USF.COMPS:TAR:1,2014-06-01T00:48:00Z,28.1560,-82.7580,90.72,1111122 
COMPS,ioos:station:USF.COMPS:TAR:1,2014-06-01T00:54:00Z,28.1560,-82.7580,90.79,1111122 
COMPS,ioos:station:USF.COMPS:TAR:1,2014-06-01T01:00:00Z,28.1560,-82.7580,90.58,1111122 
COMPS,ioos:station:USF.COMPS:TAR:1,2014-06-01T01:06:00Z,28.1560,-82.7580,90.71,1111122 
COMPS,ioos:station:USF.COMPS:TAR:1,2014-06-01T01:12:00Z,28.1560,-82.7580,91.15,1111122 
COMPS,ioos:station:USF.COMPS:TAR:1,2014-06-01T01:18:00Z,28.1560,-82.7580,91.01,1111122 
COMPS,ioos:station:USF.COMPS:TAR:1,2014-06-01T01:24:00Z,28.1560,-82.7580,90.38,1111122 
COMPS,ioos:station:USF.COMPS:TAR:1,2014-06-01T01:30:00Z,28.1560,-82.7580,90.66,1111122 
COMPS,ioos:station:USF.COMPS:TAR:1,2014-06-01T01:36:00Z,28.1560,-82.7580,90.89,1111122 
COMPS,ioos:station:USF.COMPS:TAR:1,2014-06-01T01:42:00Z,28.1560,-82.7580,91.34,1111122 
COMPS,ioos:station:USF.COMPS:TAR:1,2014-06-01T01:48:00Z,28.1560,-82.7580,91.3,1111122 
COMPS,ioos:station:USF.COMPS:TAR:1,2014-06-01T01:54:00Z,28.1560,-82.7580,91.58,1111122 
COMPS,ioos:station:USF.COMPS:TAR:1,2014-06-01T02:00:00Z,28.1560,-82.7580,91.52,1111122 
COMPS,ioos:station:USF.COMPS:TAR:1,2014-06-01T02:06:00Z,28.1560,-82.7580,91.97,1111122 
COMPS,ioos:station:USF.COMPS:TAR:1,2014-06-01T02:12:00Z,28.1560,-82.7580,92.16,1111122 
COMPS,ioos:station:USF.COMPS:TAR:1,2014-06-01T02:18:00Z,28.1560,-82.7580,91.95,1111122 
COMPS,ioos:station:USF.COMPS:TAR:1,2014-06-01T02:24:00Z,28.1560,-82.7580,91.84,1111122 
COMPS,ioos:station:USF.COMPS:TAR:1,2014-06-01T02:30:00Z,28.1560,-82.7580,92.04,1111122 
COMPS,ioos:station:USF.COMPS:TAR:1,2014-06-01T02:36:00Z,28.1560,-82.7580,92.23,1111122 
COMPS,ioos:station:USF.COMPS:TAR:1,2014-06-01T02:42:00Z,28.1560,-82.7580,92.35,1111122 
COMPS,ioos:station:USF.COMPS:TAR:1,2014-06-01T02:48:00Z,28.1560,-82.7580,92.17,1111122 
COMPS,ioos:station:USF.COMPS:TAR:1,2014-06-01T02:54:00Z,28.1560,-82.7580,92.04,1111122 
COMPS,ioos:station:USF.COMPS:TAR:1,2014-06-01T03:00:00Z,28.1560,-82.7580,92.25,1111122 
COMPS,ioos:station:USF.COMPS:TAR:1,2014-06-01T03:06:00Z,28.1560,-82.7580,91.97,1111122 
COMPS,ioos:station:USF.COMPS:TAR:1,2014-06-01T03:12:00Z,28.1560,-82.7580,91.85,1111122 
COMPS,ioos:station:USF.COMPS:TAR:1,2014-06-01T03:18:00Z,28.1560,-82.7580,91.89,1111122 
COMPS,ioos:station:USF.COMPS:TAR:1,2014-06-01T03:24:00Z,28.1560,-82.7580,91.6,1111122 
COMPS,ioos:station:USF.COMPS:TAR:1,2014-06-01T03:30:00Z,28.1560,-82.7580,91.62,1111122 
COMPS,ioos:station:USF.COMPS:TAR:1,2014-06-01T03:36:00Z,28.1560,-82.7580,91.18,1111122 
COMPS,ioos:station:USF.COMPS:TAR:1,2014-06-01T03:42:00Z,28.1560,-82.7580,91.2,1111122 
COMPS,ioos:station:USF.COMPS:TAR:1,2014-06-01T03:48:00Z,28.1560,-82.7580,91.22,1111122 
COMPS,ioos:station:USF.COMPS:TAR:1,2014-06-01T03:54:00Z,28.1560,-82.7580,91.23,1111122 
COMPS,ioos:station:USF.COMPS:TAR:1,2014-06-01T04:00:00Z,28.1560,-82.7580,90.94,1111122 
COMPS,ioos:station:USF.COMPS:TAR:1,2014-06-01T04:06:00Z,28.1560,-82.7580,90.44,1111122 
COMPS,ioos:station:USF.COMPS:TAR:1,2014-06-01T04:12:00Z,28.1560,-82.7580,90.35,1111122 
COMPS,ioos:station:USF.COMPS:TAR:1,2014-06-01T04:18:00Z,28.1560,-82.7580,90.33,1111122 
COMPS,ioos:station:USF.COMPS:TAR:1,2014-06-01T04:24:00Z,28.1560,-82.7580,90.44,1111122 
COMPS,ioos:station:USF.COMPS:TAR:1,2014-06-01T04:30:00Z,28.1560,-82.7580,90.4,1111122 
COMPS,ioos:station:USF.COMPS:TAR:1,2014-06-01T04:36:00Z,28.1560,-82.7580,90.48,1111122 
COMPS,ioos:station:USF.COMPS:TAR:1,2014-06-01T04:42:00Z,28.1560,-82.7580,90.58,1111122 
COMPS,ioos:station:USF.COMPS:TAR:1,2014-06-01T04:48:00Z,28.1560,-82.7580,90.69,1111122 
COMPS,ioos:station:USF.COMPS:TAR:1,2014-06-01T04:54:00Z,28.1560,-82.7580,90.72,1111122 
COMPS,ioos:station:USF.COMPS:TAR:1,2014-06-01T05:00:00Z,28.1560,-82.7580,90.75,1111122 
COMPS,ioos:station:USF.COMPS:TAR:1,2014-06-01T05:06:00Z,28.1560,-82.7580,91.03,1111122 
COMPS,ioos:station:USF.COMPS:TAR:1,2014-06-01T05:12:00Z,28.1560,-82.7580,91.3,1111122 
COMPS,ioos:station:USF.COMPS:TAR:1,2014-06-01T05:18:00Z,28.1560,-82.7580,91.23,1111122 
COMPS,ioos:station:USF.COMPS:TAR:1,2014-06-01T05:24:00Z,28.1560,-82.7580,91.12,1111122 
COMPS,ioos:station:USF.COMPS:TAR:1,2014-06-01T05:30:00Z,28.1560,-82.7580,91.26,1111122 
COMPS,ioos:station:USF.COMPS:TAR:1,2014-06-01T05:36:00Z,28.1560,-82.7580,91.56,1111122 
COMPS,ioos:station:USF.COMPS:TAR:1,2014-06-01T05:42:00Z,28.1560,-82.7580,91.73,1111122 
COMPS,ioos:station:USF.COMPS:TAR:1,2014-06-01T05:48:00Z,28.1560,-82.7580,91.79,1111122 
COMPS,ioos:station:USF.COMPS:TAR:1,2014-06-01T05:54:00Z,28.1560,-82.7580,91.46,1111122 
COMPS,ioos:station:USF.COMPS:TAR:1,2014-06-01T06:00:00Z,28.1560,-82.7580,91.45,1111122 
COMPS,ioos:station:USF.COMPS:TAR:1,2014-06-01T06:06:00Z,28.1560,-82.7580,91.53,1111122 
COMPS,ioos:station:USF.COMPS:TAR:1,2014-06-01T06:12:00Z,28.1560,-82.7580,91.5,1111122 
COMPS,ioos:station:USF.COMPS:TAR:1,2014-06-01T06:18:00Z,28.1560,-82.7580,91.46,1111122 
COMPS,ioos:station:USF.COMPS:TAR:1,2014-06-01T06:24:00Z,28.1560,-82.7580,91.35,1111122 
COMPS,ioos:station:USF.COMPS:TAR:1,2014-06-01T06:30:00Z,28.1560,-82.7580,91.29,1111122 
COMPS,ioos:station:USF.COMPS:TAR:1,2014-06-01T06:36:00Z,28.1560,-82.7580,91.41,1111122 
COMPS,ioos:station:USF.COMPS:TAR:1,2014-06-01T06:42:00Z,28.1560,-82.7580,91.67,1111122 
COMPS,ioos:station:USF.COMPS:TAR:1,2014-06-01T06:48:00Z,28.1560,-82.7580,92.19,1111122 
COMPS,ioos:station:USF.COMPS:TAR:1,2014-06-01T06:54:00Z,28.1560,-82.7580,92.41,1111122 
COMPS,ioos:station:USF.COMPS:TAR:1,2014-06-01T07:00:00Z,28.1560,-82.7580,92.68,1111122 
COMPS,ioos:station:USF.COMPS:TAR:1,2014-06-01T07:06:00Z,28.1560,-82.7580,92.76,1111122 
COMPS,ioos:station:USF.COMPS:TAR:1,2014-06-01T07:12:00Z,28.1560,-82.7580,92.82,1111122 
COMPS,ioos:station:USF.COMPS:TAR:1,2014-06-01T07:18:00Z,28.1560,-82.7580,92.83,1111122 
COMPS,ioos:station:USF.COMPS:TAR:1,2014-06-01T07:24:00Z,28.1560,-82.7580,92.93,1111122 
COMPS,ioos:station:USF.COMPS:TAR:1,2014-06-01T07:30:00Z,28.1560,-82.7580,93.02,1111122 
COMPS,ioos:station:USF.COMPS:TAR:1,2014-06-01T07:36:00Z,28.1560,-82.7580,93.03,1111122 
COMPS,ioos:station:USF.COMPS:TAR:1,2014-06-01T07:42:00Z,28.1560,-82.7580,93.12,1111122 
COMPS,ioos:station:USF.COMPS:TAR:1,2014-06-01T07:48:00Z,28.1560,-82.7580,93.21,1111122 
COMPS,ioos:station:USF.COMPS:TAR:1,2014-06-01T07:54:00Z,28.1560,-82.7580,93.16,1111122 
COMPS,ioos:station:USF.COMPS:TAR:1,2014-06-01T08:00:00Z,28.1560,-82.7580,93.1,1111122 
COMPS,ioos:station:USF.COMPS:TAR:1,2014-06-01T08:06:00Z,28.1560,-82.7580,92.97,1111122 
COMPS,ioos:station:USF.COMPS:TAR:1,2014-06-01T08:12:00Z,28.1560,-82.7580,92.99,1111122 
COMPS,ioos:station:USF.COMPS:TAR:1,2014-06-01T08:18:00Z,28.1560,-82.7580,93.02,1111122 
COMPS,ioos:station:USF.COMPS:TAR:1,2014-06-01T08:24:00Z,28.1560,-82.7580,93.05,1111122 
COMPS,ioos:station:USF.COMPS:TAR:1,2014-06-01T08:30:00Z,28.1560,-82.7580,93.06,1111122 
COMPS,ioos:station:USF.COMPS:TAR:1,2014-06-01T08:36:00Z,28.1560,-82.7580,93.15,1111122 
COMPS,ioos:station:USF.COMPS:TAR:1,2014-06-01T08:42:00Z,28.1560,-82.7580,93.19,1111122 
COMPS,ioos:station:USF.COMPS:TAR:1,2014-06-01T08:48:00Z,28.1560,-82.7580,93.12,1111122 
COMPS,ioos:station:USF.COMPS:TAR:1,2014-06-01T08:54:00Z,28.1560,-82.7580,93.1,1111122 
COMPS,ioos:station:USF.COMPS:TAR:1,2014-06-01T09:00:00Z,28.1560,-82.7580,93.11,1111122 
COMPS,ioos:station:USF.COMPS:TAR:1,2014-06-01T09:06:00Z,28.1560,-82.7580,93.21,1111122 
COMPS,ioos:station:USF.COMPS:TAR:1,2014-06-01T09:12:00Z,28.1560,-82.7580,93.25,1111122 
COMPS,ioos:station:USF.COMPS:TAR:1,2014-06-01T09:18:00Z,28.1560,-82.7580,93.3,1111122 
COMPS,ioos:station:USF.COMPS:TAR:1,2014-06-01T09:24:00Z,28.1560,-82.7580,93.27,1111122 
COMPS,ioos:station:USF.COMPS:TAR:1,2014-06-01T09:30:00Z,28.1560,-82.7580,93.23,1111122 
COMPS,ioos:station:USF.COMPS:TAR:1,2014-06-01T09:36:00Z,28.1560,-82.7580,93.2,1111122 
COMPS,ioos:station:USF.COMPS:TAR:1,2014-06-01T09:42:00Z,28.1560,-82.7580,93.19,1111122 
COMPS,ioos:station:USF.COMPS:TAR:1,2014-06-01T09:48:00Z,28.1560,-82.7580,93.12,1111122 
COMPS,ioos:station:USF.COMPS:TAR:1,2014-06-01T09:54:00Z,28.1560,-82.7580,93.06,1111122 
COMPS,ioos:station:USF.COMPS:TAR:1,2014-06-01T10:00:00Z,28.1560,-82.7580,92.95,1111122 
COMPS,ioos:station:USF.COMPS:TAR:1,2014-06-01T10:06:00Z,28.1560,-82.7580,92.92,1111122 
COMPS,ioos:station:USF.COMPS:TAR:1,2014-06-01T10:12:00Z,28.1560,-82.7580,92.9,1111122 
COMPS,ioos:station:USF.COMPS:TAR:1,2014-06-01T10:18:00Z,28.1560,-82.7580,92.85,1111122 
COMPS,ioos:station:USF.COMPS:TAR:1,2014-06-01T10:24:00Z,28.1560,-82.7580,92.84,1111122 
COMPS,ioos:station:USF.COMPS:TAR:1,2014-06-01T10:30:00Z,28.1560,-82.7580,92.94,1111122 
COMPS,ioos:station:USF.COMPS:TAR:1,2014-06-01T10:36:00Z,28.1560,-82.7580,93.04,1111122 
COMPS,ioos:station:USF.COMPS:TAR:1,2014-06-01T10:42:00Z,28.1560,-82.7580,93.17,1111122 
COMPS,ioos:station:USF.COMPS:TAR:1,2014-06-01T10:48:00Z,28.1560,-82.7580,93.32,1111122 
COMPS,ioos:station:USF.COMPS:TAR:1,2014-06-01T10:54:00Z,28.1560,-82.7580,93.42,1111122 
COMPS,ioos:station:USF.COMPS:TAR:1,2014-06-01T11:00:00Z,28.1560,-82.7580,93.43,1111122 
COMPS,ioos:station:USF.COMPS:TAR:1,2014-06-01T11:06:00Z,28.1560,-82.7580,93.38,1111122 
COMPS,ioos:station:USF.COMPS:TAR:1,2014-06-01T11:12:00Z,28.1560,-82.7580,93.2,1111122 
COMPS,ioos:station:USF.COMPS:TAR:1,2014-06-01T11:18:00Z,28.1560,-82.7580,93.03,1111122 
COMPS,ioos:station:USF.COMPS:TAR:1,2014-06-01T11:24:00Z,28.1560,-82.7580,92.83,1111122 
COMPS,ioos:station:USF.COMPS:TAR:1,2014-06-01T11:30:00Z,28.1560,-82.7580,92.33,1111122 
COMPS,ioos:station:USF.COMPS:TAR:1,2014-06-01T11:36:00Z,28.1560,-82.7580,91.96,1111122 
COMPS,ioos:station:USF.COMPS:TAR:1,2014-06-01T11:42:00Z,28.1560,-82.7580,91.53,1111122 
COMPS,ioos:station:USF.COMPS:TAR:1,2014-06-01T11:48:00Z,28.1560,-82.7580,91.21,1111122 
COMPS,ioos:station:USF.COMPS:TAR:1,2014-06-01T11:54:00Z,28.1560,-82.7580,90.84,1111122 
COMPS,ioos:station:USF.COMPS:TAR:1,2014-06-01T12:00:00Z,28.1560,-82.7580,90.55,1111122 
COMPS,ioos:station:USF.COMPS:TAR:1,2014-06-01T12:06:00Z,28.1560,-82.7580,90.33,1111122 
COMPS,ioos:station:USF.COMPS:TAR:1,2014-06-01T12:12:00Z,28.1560,-82.7580,89.65,1111122 
COMPS,ioos:station:USF.COMPS:TAR:1,2014-06-01T12:18:00Z,28.1560,-82.7580,89.29,1111122 
COMPS,ioos:station:USF.COMPS:TAR:1,2014-06-01T12:24:00Z,28.1560,-82.7580,88.5,1111122 
COMPS,ioos:station:USF.COMPS:TAR:1,2014-06-01T12:30:00Z,28.1560,-82.7580,88.36,1111122 
COMPS,ioos:station:USF.COMPS:TAR:1,2014-06-01T12:36:00Z,28.1560,-82.7580,88.06,1111122 
COMPS,ioos:station:USF.COMPS:TAR:1,2014-06-01T12:42:00Z,28.1560,-82.7580,87.42,1111122 
COMPS,ioos:station:USF.COMPS:TAR:1,2014-06-01T12:48:00Z,28.1560,-82.7580,86.78,1111122 
COMPS,ioos:station:USF.COMPS:TAR:1,2014-06-01T12:54:00Z,28.1560,-82.7580,86.11,1111122 
COMPS,ioos:station:USF.COMPS:TAR:1,2014-06-01T13:00:00Z,28.1560,-82.7580,85.67,1111122 
COMPS,ioos:station:USF.COMPS:TAR:1,2014-06-01T13:06:00Z,28.1560,-82.7580,84.7,1111122 
COMPS,ioos:station:USF.COMPS:TAR:1,2014-06-01T13:12:00Z,28.1560,-82.7580,84.34,1111122 
COMPS,ioos:station:USF.COMPS:TAR:1,2014-06-01T13:18:00Z,28.1560,-82.7580,83.52,1111122 
COMPS,ioos:station:USF.COMPS:TAR:1,2014-06-01T13:24:00Z,28.1560,-82.7580,82.56,1111122 
COMPS,ioos:station:USF.COMPS:TAR:1,2014-06-01T13:30:00Z,28.1560,-82.7580,82.38,1111122 
COMPS,ioos:station:USF.COMPS:TAR:1,2014-06-01T13:36:00Z,28.1560,-82.7580,81.06,1111122 
COMPS,ioos:station:USF.COMPS:TAR:1,2014-06-01T13:42:00Z,28.1560,-82.7580,80.61,1111122 
COMPS,ioos:station:USF.COMPS:TAR:1,2014-06-01T13:48:00Z,28.1560,-82.7580,79.77,1111122 
COMPS,ioos:station:USF.COMPS:TAR:1,2014-06-01T13:54:00Z,28.1560,-82.7580,77.68,1111122 
COMPS,ioos:station:USF.COMPS:TAR:1,2014-06-01T14:00:00Z,28.1560,-82.7580,76.4,1111122 
COMPS,ioos:station:USF.COMPS:TAR:1,2014-06-01T14:06:00Z,28.1560,-82.7580,74.48,1111122 
COMPS,ioos:station:USF.COMPS:TAR:1,2014-06-01T14:12:00Z,28.1560,-82.7580,72.76,1111122 
COMPS,ioos:station:USF.COMPS:TAR:1,2014-06-01T14:18:00Z,28.1560,-82.7580,72.67,1111122 
COMPS,ioos:station:USF.COMPS:TAR:1,2014-06-01T14:24:00Z,28.1560,-82.7580,71.01,1111122 
COMPS,ioos:station:USF.COMPS:TAR:1,2014-06-01T14:30:00Z,28.1560,-82.7580,69.64,1111122 
COMPS,ioos:station:USF.COMPS:TAR:1,2014-06-01T14:36:00Z,28.1560,-82.7580,69.25,1111122 
COMPS,ioos:station:USF.COMPS:TAR:1,2014-06-01T14:42:00Z,28.1560,-82.7580,68.94,1111122 
COMPS,ioos:station:USF.COMPS:TAR:1,2014-06-01T14:48:00Z,28.1560,-82.7580,67.79,1111122 
COMPS,ioos:station:USF.COMPS:TAR:1,2014-06-01T14:54:00Z,28.1560,-82.7580,66.11,1111122 
COMPS,ioos:station:USF.COMPS:TAR:1,2014-06-01T15:00:00Z,28.1560,-82.7580,66.29,1111122 
COMPS,ioos:station:USF.COMPS:TAR:1,2014-06-01T15:06:00Z,28.1560,-82.7580,67.44,1111122 
COMPS,ioos:station:USF.COMPS:TAR:1,2014-06-01T15:12:00Z,28.1560,-82.7580,68.01,1111122 
COMPS,ioos:station:USF.COMPS:TAR:1,2014-06-01T15:18:00Z,28.1560,-82.7580,65.46,1111122 
COMPS,ioos:station:USF.COMPS:TAR:1,2014-06-01T15:24:00Z,28.1560,-82.7580,65.31,1111122 
COMPS,ioos:station:USF.COMPS:TAR:1,2014-06-01T15:30:00Z,28.1560,-82.7580,65.54,1111122 
COMPS,ioos:station:USF.COMPS:TAR:1,2014-06-01T15:36:00Z,28.1560,-82.7580,65.78,1111122 
COMPS,ioos:station:USF.COMPS:TAR:1,2014-06-01T15:42:00Z,28.1560,-82.7580,65.24,1111122 
COMPS,ioos:station:USF.COMPS:TAR:1,2014-06-01T15:48:00Z,28.1560,-82.7580,64.22,1111122 
COMPS,ioos:station:USF.COMPS:TAR:1,2014-06-01T15:54:00Z,28.1560,-82.7580,63.25,1111122 
COMPS,ioos:station:USF.COMPS:TAR:1,2014-06-01T16:00:00Z,28.1560,-82.7580,61.73,1111122 
COMPS,ioos:station:USF.COMPS:TAR:1,2014-06-01T16:06:00Z,28.1560,-82.7580,62.27,1111122 
COMPS,ioos:station:USF.COMPS:TAR:1,2014-06-01T16:12:00Z,28.1560,-82.7580,61.67,1111122 
COMPS,ioos:station:USF.COMPS:TAR:1,2014-06-01T16:18:00Z,28.1560,-82.7580,62.29,1111122 
COMPS,ioos:station:USF.COMPS:TAR:1,2014-06-01T16:24:00Z,28.1560,-82.7580,59.82,1111122 
COMPS,ioos:station:USF.COMPS:TAR:1,2014-06-01T16:30:00Z,28.1560,-82.7580,60.62,1111122 
COMPS,ioos:station:USF.COMPS:TAR:1,2014-06-01T16:36:00Z,28.1560,-82.7580,60.09,1111122 
COMPS,ioos:station:USF.COMPS:TAR:1,2014-06-01T16:42:00Z,28.1560,-82.7580,58.61,1111122 
COMPS,ioos:station:USF.COMPS:TAR:1,2014-06-01T16:48:00Z,28.1560,-82.7580,58.22,1111122 
COMPS,ioos:station:USF.COMPS:TAR:1,2014-06-01T16:54:00Z,28.1560,-82.7580,58.73,1111122 
COMPS,ioos:station:USF.COMPS:TAR:1,2014-06-01T17:00:00Z,28.1560,-82.7580,60.04,1111122 
COMPS,ioos:station:USF.COMPS:TAR:1,2014-06-01T17:06:00Z,28.1560,-82.7580,58.62,1111122 
COMPS,ioos:station:USF.COMPS:TAR:1,2014-06-01T17:12:00Z,28.1560,-82.7580,57.69,1111122 
COMPS,ioos:station:USF.COMPS:TAR:1,2014-06-01T17:18:00Z,28.1560,-82.7580,58.18,1111122 
COMPS,ioos:station:USF.COMPS:TAR:1,2014-06-01T17:24:00Z,28.1560,-82.7580,57.14,1111122 
COMPS,ioos:station:USF.COMPS:TAR:1,2014-06-01T17:30:00Z,28.1560,-82.7580,57.37,1111122 
COMPS,ioos:station:USF.COMPS:TAR:1,2014-06-01T17:36:00Z,28.1560,-82.7580,56.48,1111122 
COMPS,ioos:station:USF.COMPS:TAR:1,2014-06-01T17:42:00Z,28.1560,-82.7580,54.72,1111122 
COMPS,ioos:station:USF.COMPS:TAR:1,2014-06-01T17:48:00Z,28.1560,-82.7580,54.91,1111122 
COMPS,ioos:station:USF.COMPS:TAR:1,2014-06-01T17:54:00Z,28.1560,-82.7580,54.69,1111122 
COMPS,ioos:station:USF.COMPS:TAR:1,2014-06-01T18:00:00Z,28.1560,-82.7580,53.82,1111122 
COMPS,ioos:station:USF.COMPS:TAR:1,2014-06-01T18:06:00Z,28.1560,-82.7580,52.2,1111122 
COMPS,ioos:station:USF.COMPS:TAR:1,2014-06-01T18:12:00Z,28.1560,-82.7580,50.32,1111122 
COMPS,ioos:station:USF.COMPS:TAR:1,2014-06-01T18:18:00Z,28.1560,-82.7580,48.85,1111122 
COMPS,ioos:station:USF.COMPS:TAR:1,2014-06-01T18:24:00Z,28.1560,-82.7580,50.41,1111122 
COMPS,ioos:station:USF.COMPS:TAR:1,2014-06-01T18:30:00Z,28.1560,-82.7580,51.32,1111122 
COMPS,ioos:station:USF.COMPS:TAR:1,2014-06-01T18:36:00Z,28.1560,-82.7580,51.52,1111122 
COMPS,ioos:station:USF.COMPS:TAR:1,2014-06-01T18:42:00Z,28.1560,-82.7580,49.51,1111122 
COMPS,ioos:station:USF.COMPS:TAR:1,2014-06-01T18:48:00Z,28.1560,-82.7580,48.46,1111122 
COMPS,ioos:station:USF.COMPS:TAR:1,2014-06-01T18:54:00Z,28.1560,-82.7580,47.93,1111122 
COMPS,ioos:station:USF.COMPS:TAR:1,2014-06-01T19:00:00Z,28.1560,-82.7580,47.45,1111122 
COMPS,ioos:station:USF.COMPS:TAR:1,2014-06-01T19:06:00Z,28.1560,-82.7580,47.79,1111122 
COMPS,ioos:station:USF.COMPS:TAR:1,2014-06-01T19:12:00Z,28.1560,-82.7580,49.32,1111122 
COMPS,ioos:station:USF.COMPS:TAR:1,2014-06-01T19:18:00Z,28.1560,-82.7580,50.69,1111122 
COMPS,ioos:station:USF.COMPS:TAR:1,2014-06-01T19:24:00Z,28.1560,-82.7580,51.15,1111122 
COMPS,ioos:station:USF.COMPS:TAR:1,2014-06-01T19:30:00Z,28.1560,-82.7580,48.82,1111122 
COMPS,ioos:station:USF.COMPS:TAR:1,2014-06-01T19:36:00Z,28.1560,-82.7580,49.36,1111122 
COMPS,ioos:station:USF.COMPS:TAR:1,2014-06-01T19:42:00Z,28.1560,-82.7580,49.89,1111122 
COMPS,ioos:station:USF.COMPS:TAR:1,2014-06-01T19:48:00Z,28.1560,-82.7580,48.55,1111122 
COMPS,ioos:station:USF.COMPS:TAR:1,2014-06-01T19:54:00Z,28.1560,-82.7580,45.32,1111122 
COMPS,ioos:station:USF.COMPS:TAR:1,2014-06-01T20:00:00Z,28.1560,-82.7580,46.24,1111122 
COMPS,ioos:station:USF.COMPS:TAR:1,2014-06-01T20:06:00Z,28.1560,-82.7580,47.87,1111122 
COMPS,ioos:station:USF.COMPS:TAR:1,2014-06-01T20:12:00Z,28.1560,-82.7580,59.78,1111122 
COMPS,ioos:station:USF.COMPS:TAR:1,2014-06-01T20:18:00Z,28.1560,-82.7580,65.3,1111122 
COMPS,ioos:station:USF.COMPS:TAR:1,2014-06-01T20:24:00Z,28.1560,-82.7580,66.43,1111122 
COMPS,ioos:station:USF.COMPS:TAR:1,2014-06-01T20:30:00Z,28.1560,-82.7580,67.13,1111122 
COMPS,ioos:station:USF.COMPS:TAR:1,2014-06-01T20:36:00Z,28.1560,-82.7580,68.41,1111122 
COMPS,ioos:station:USF.COMPS:TAR:1,2014-06-01T20:42:00Z,28.1560,-82.7580,70.11,1111122 
COMPS,ioos:station:USF.COMPS:TAR:1,2014-06-01T20:48:00Z,28.1560,-82.7580,70.69,1111122 
COMPS,ioos:station:USF.COMPS:TAR:1,2014-06-01T20:54:00Z,28.1560,-82.7580,70.14,1111122 
COMPS,ioos:station:USF.COMPS:TAR:1,2014-06-01T21:00:00Z,28.1560,-82.7580,72.7,1111122 
COMPS,ioos:station:USF.COMPS:TAR:1,2014-06-01T21:06:00Z,28.1560,-82.7580,81.44,1111122 
COMPS,ioos:station:USF.COMPS:TAR:1,2014-06-01T21:12:00Z,28.1560,-82.7580,84.16,1111122 
COMPS,ioos:station:USF.COMPS:TAR:1,2014-06-01T21:18:00Z,28.1560,-82.7580,84.96,1111122 
COMPS,ioos:station:USF.COMPS:TAR:1,2014-06-01T21:24:00Z,28.1560,-82.7580,83.98,1111122 
COMPS,ioos:station:USF.COMPS:TAR:1,2014-06-01T21:30:00Z,28.1560,-82.7580,83.17,1111122 
COMPS,ioos:station:USF.COMPS:TAR:1,2014-06-01T21:36:00Z,28.1560,-82.7580,83.04,1111122 
COMPS,ioos:station:USF.COMPS:TAR:1,2014-06-01T21:42:00Z,28.1560,-82.7580,83.85,1111122 
COMPS,ioos:station:USF.COMPS:TAR:1,2014-06-01T21:48:00Z,28.1560,-82.7580,84.09,1111122 
COMPS,ioos:station:USF.COMPS:TAR:1,2014-06-01T21:54:00Z,28.1560,-82.7580,84.86,1111122 
COMPS,ioos:station:USF.COMPS:TAR:1,2014-06-01T22:00:00Z,28.1560,-82.7580,83.86,1111122 
COMPS,ioos:station:USF.COMPS:TAR:1,2014-06-01T22:06:00Z,28.1560,-82.7580,83.87,1111122 
COMPS,ioos:station:USF.COMPS:TAR:1,2014-06-01T22:12:00Z,28.1560,-82.7580,83.51,1111122 
COMPS,ioos:station:USF.COMPS:TAR:1,2014-06-01T22:18:00Z,28.1560,-82.7580,83.42,1111122 
COMPS,ioos:station:USF.COMPS:TAR:1,2014-06-01T22:24:00Z,28.1560,-82.7580,83.71,1111122 
COMPS,ioos:station:USF.COMPS:TAR:1,2014-06-01T22:30:00Z,28.1560,-82.7580,83.63,1111122 
COMPS,ioos:station:USF.COMPS:TAR:1,2014-06-01T22:36:00Z,28.1560,-82.7580,83.46,1111122 
COMPS,ioos:station:USF.COMPS:TAR:1,2014-06-01T22:42:00Z,28.1560,-82.7580,82.54,1111122 
COMPS,ioos:station:USF.COMPS:TAR:1,2014-06-01T22:48:00Z,28.1560,-82.7580,81.5,1111122 
COMPS,ioos:station:USF.COMPS:TAR:1,2014-06-01T22:54:00Z,28.1560,-82.7580,80.67,1111122 
COMPS,ioos:station:USF.COMPS:TAR:1,2014-06-01T23:00:00Z,28.1560,-82.7580,80.03,1111122 
COMPS,ioos:station:USF.COMPS:TAR:1,2014-06-01T23:06:00Z,28.1560,-82.7580,79.88,1111122 
COMPS,ioos:station:USF.COMPS:TAR:1,2014-06-01T23:12:00Z,28.1560,-82.7580,79.9,1111122 
COMPS,ioos:station:USF.COMPS:TAR:1,2014-06-01T23:18:00Z,28.1560,-82.7580,79.62,1111122 
COMPS,ioos:station:USF.COMPS:TAR:1,2014-06-01T23:24:00Z,28.1560,-82.7580,79.29,1111122 
COMPS,ioos:station:USF.COMPS:TAR:1,2014-06-01T23:30:00Z,28.1560,-82.7580,79.12,1111122 
COMPS,ioos:station:USF.COMPS:TAR:1,2014-06-01T23:36:00Z,28.1560,-82.7580,78.29,1111122 
COMPS,ioos:station:USF.COMPS:TAR:1,2014-06-01T23:42:00Z,28.1560,-82.7580,76.88,1111122 
COMPS,ioos:station:USF.COMPS:TAR:1,2014-06-01T23:48:00Z,28.1560,-82.7580,77.01,1111122 
COMPS,ioos:station:USF.COMPS:TAR:1,2014-06-01T23:54:00Z,28.1560,-82.7580,77.71,1111122 
COMPS,ioos:station:USF.COMPS:TAR:1,2014-06-02T00:00:00Z,28.1560,-82.7580,79.0,1111122 
COMPS,ioos:station:USF.COMPS:TAR:1,2014-06-02T00:06:00Z,28.1560,-82.7580,79.61,1111122 
COMPS,ioos:station:USF.COMPS:TAR:1,2014-06-02T00:12:00Z,28.1560,-82.7580,80.48,1111122 
COMPS,ioos:station:USF.COMPS:TAR:1,2014-06-02T00:18:00Z,28.1560,-82.7580,81.34,1111122 
COMPS,ioos:station:USF.COMPS:TAR:1,2014-06-02T00:24:00Z,28.1560,-82.7580,82.04,1111122 
COMPS,ioos:station:USF.COMPS:TAR:1,2014-06-02T00:30:00Z,28.1560,-82.7580,82.78,1111122 
COMPS,ioos:station:USF.COMPS:TAR:1,2014-06-02T00:36:00Z,28.1560,-82.7580,83.87,1111122 
COMPS,ioos:station:USF.COMPS:TAR:1,2014-06-02T00:42:00Z,28.1560,-82.7580,84.7,1111122 
COMPS,ioos:station:USF.COMPS:TAR:1,2014-06-02T00:48:00Z,28.1560,-82.7580,85.07,1111122 
COMPS,ioos:station:USF.COMPS:TAR:1,2014-06-02T00:54:00Z,28.1560,-82.7580,85.53,1111122 
COMPS,ioos:station:USF.COMPS:TAR:1,2014-06-02T01:00:00Z,28.1560,-82.7580,85.87,1111122 
COMPS,ioos:station:USF.COMPS:TAR:1,2014-06-02T01:06:00Z,28.1560,-82.7580,86.5,1111122 
COMPS,ioos:station:USF.COMPS:TAR:1,2014-06-02T01:12:00Z,28.1560,-82.7580,86.24,1111122 
COMPS,ioos:station:USF.COMPS:TAR:1,2014-06-02T01:18:00Z,28.1560,-82.7580,84.84,1111122 
COMPS,ioos:station:USF.COMPS:TAR:1,2014-06-02T01:24:00Z,28.1560,-82.7580,83.7,1111122 
COMPS,ioos:station:USF.COMPS:TAR:1,2014-06-02T01:30:00Z,28.1560,-82.7580,83.11,1111122 
COMPS,ioos:station:USF.COMPS:TAR:1,2014-06-02T01:36:00Z,28.1560,-82.7580,82.93,1111122 
COMPS,ioos:station:USF.COMPS:TAR:1,2014-06-02T01:42:00Z,28.1560,-82.7580,82.84,1111122 
COMPS,ioos:station:USF.COMPS:TAR:1,2014-06-02T01:48:00Z,28.1560,-82.7580,82.82,1111122 
COMPS,ioos:station:USF.COMPS:TAR:1,2014-06-02T01:54:00Z,28.1560,-82.7580,82.91,1111122 
COMPS,ioos:station:USF.COMPS:TAR:1,2014-06-02T02:00:00Z,28.1560,-82.7580,82.91,1111122 
COMPS,ioos:station:USF.COMPS:TAR:1,2014-06-02T02:06:00Z,28.1560,-82.7580,82.89,1111122 
COMPS,ioos:station:USF.COMPS:TAR:1,2014-06-02T02:12:00Z,28.1560,-82.7580,83.03,1111122 
COMPS,ioos:station:USF.COMPS:TAR:1,2014-06-02T02:18:00Z,28.1560,-82.7580,82.9,1111122 
COMPS,ioos:station:USF.COMPS:TAR:1,2014-06-02T02:24:00Z,28.1560,-82.7580,83.15,1111122 
COMPS,ioos:station:USF.COMPS:TAR:1,2014-06-02T02:30:00Z,28.1560,-82.7580,83.46,1111122 
COMPS,ioos:station:USF.COMPS:TAR:1,2014-06-02T02:36:00Z,28.1560,-82.7580,83.55,1111122 
COMPS,ioos:station:USF.COMPS:TAR:1,2014-06-02T02:42:00Z,28.1560,-82.7580,83.55,1111122 
COMPS,ioos:station:USF.COMPS:TAR:1,2014-06-02T02:48:00Z,28.1560,-82.7580,83.83,1111122 
COMPS,ioos:station:USF.COMPS:TAR:1,2014-06-02T02:54:00Z,28.1560,-82.7580,84.26,1111122 
COMPS,ioos:station:USF.COMPS:TAR:1,2014-06-02T03:00:00Z,28.1560,-82.7580,84.46,1111122 
COMPS,ioos:station:USF.COMPS:TAR:1,2014-06-02T03:06:00Z,28.1560,-82.7580,84.29,1111122 